PILOTS ONLINE: 198    ATC ONLINE: 22

CYSK

Sanikiluaq Airport

Location

IATA YSK
City Sanikiluaq
Country  Canada
Latitude 56° 32' 16" N
Longitude 79° 14' 48" W
Elevation 104 ft
Type Medium Airport

Map

Weather

METAR
2014/09/18 22:00
CYSK 182200Z 27010KT 15SM FEW014 05/M03 A3010 RMK SC2 5.5/2.1/M/M LAST OBS/NEXT 191200UTC SLP196
TAF
No TAF available

Runways

09/27 3800 ft / 0 ft

Outbound flights

Callsign Flying to Pilot ATD/STD ETA Aircraft

Inbound flights

Callsign Flying from Pilot ATD ETA Aircraft